This is the latest recevied weather packets stored in our database for station/object W0CHP-13. If no packets are shown the sender has not sent any weather packets the latest 10 day(s).
| Time | Temp. | Humidity | Pressure | Rain* | Wind** | Luminosity | Snow |
|---|---|---|---|---|---|---|---|
| 1788568156 | 31.11° C | 71% | 1010.3 hPa | 0 mm | - | 6 W/m² | - |
| 1788567558 | 31.11° C | 70% | 1010.3 hPa | 0 mm | - | 10 W/m² | - |
| 1788566959 | 31.11° C | 70% | 1010.3 hPa | 0 mm | - | 15 W/m² | - |
| 1788566356 | 31.67° C | 69% | 1010.3 hPa | 0 mm | - | 20 W/m² | - |
| 1788565755 | 31.67° C | 68% | 1010.3 hPa | 0 mm | - | 24 W/m² | - |
| 1788565157 | 32.22° C | 68% | 1010.3 hPa | 0 mm | - | 42 W/m² | - |
| 1788564555 | 32.78° C | 67% | 1010.3 hPa | 0 mm | - | 47 W/m² | - |
| 1788563958 | 33.33° C | 65% | 1010.3 hPa | 0 mm | - | 77 W/m² | - |
| 1788563356 | 33.33° C | 64% | 1010.6 hPa | 0 mm | - | 100 W/m² | - |
| 1788562758 | 33.89° C | 62% | 1010.3 hPa | 0 mm | - | 121 W/m² | - |
| 1788562157 | 33.89° C | 61% | 1010.3 hPa | 0 mm | - | 151 W/m² | - |
| 1788561558 | 33.89° C | 61% | 1010.2 hPa | 0 mm | - | 181 W/m² | - |
| 1788560957 | 33.89° C | 63% | 1010.3 hPa | 0 mm | - | 209 W/m² | - |
| 1788560355 | 34.44° C | 63% | 1009.9 hPa | 0 mm | - | 244 W/m² | - |
| 1788559757 | 34.44° C | 64% | 1009.9 hPa | 0 mm | - | 272 W/m² | - |
| 1788559156 | 34.44° C | 62% | 1009.9 hPa | 0 mm | - | 188 W/m² | - |
| 1788558558 | 34.44° C | 61% | 1009.9 hPa | 0 mm | - | 250 W/m² | - |
| 1788557959 | 35° C | 59% | 1009.9 hPa | 0 mm | - | 372 W/m² | - |
| 1788557355 | 35° C | 60% | 1010.2 hPa | 0 mm | - | 482 W/m² | - |
| 1788556757 | 34.44° C | 61% | 1009.9 hPa | 0 mm | - | 463 W/m² | - |
| 1788556159 | 34.44° C | 60% | 1009.9 hPa | 0 mm | - | 459 W/m² | - |
| 1788555557 | 34.44° C | 60% | 1009.9 hPa | 0 mm | - | 468 W/m² | - |
| 1788554957 | 34.44° C | 58% | 1009.9 hPa | 0 mm | - | 486 W/m² | - |
| 1788554356 | 34.44° C | 59% | 1010.3 hPa | 0 mm | - | 509 W/m² | - |
| 1788553758 | 34.44° C | 58% | 1009.9 hPa | 0 mm | - | 532 W/m² | - |
* Rain latest hour (hover to see other rain measurements)
** Current wind speed in m/s (hover to see current wind gust speed)